Terminal Aerodrome Forecast
Issued by NWS

Home | Current Version | Previous Version | Text Only | Print | Product List | Glossary On
Versions: 1 2 3 4 5 6 7 8 9 10 11 12 13 14 15 16 17 18 19 20 21 22 23 24 25 26 27 28 29 30 31
000
FTAK31 PANC 102328
TAFAIL
TAF
PAIL 102328Z 1100/1124 35007KT P6SM -RA BKN050 OVC060
     FM111000 VRB05KT 4SM -RA BR BKN015 OVC025
     FM112100 16005KT P6SM -SHRA BKN030 OVC050=

USA.gov is the U.S. government's official web portal to all federal, state and local government web resources and services.